This is the latest recevied weather packets stored in our database for station/object K9MWD. If no packets are shown the sender has not sent any weather packets the latest 10 day(s).
| Time | Temp. | Humidity | Pressure | Rain* | Wind** | Luminosity | Snow |
|---|---|---|---|---|---|---|---|
| 1777060980 | 31.67° C | 62% | 1004.7 hPa | 0 mm | - | 876 W/m² | - |
| 1777060675 | 31.11° C | 64% | 1005.1 hPa | 0 mm | - | 909 W/m² | - |
| 1777060371 | 30.56° C | 64% | 1005.3 hPa | 0 mm | - | 232 W/m² | - |
| 1777060068 | 31.67° C | 63% | 1005.3 hPa | 0 mm | - | 244 W/m² | - |
| 1777059764 | 30.56° C | 64% | 1005.2 hPa | 0 mm | - | 911 W/m² | - |
| 1777059461 | 30.56° C | 64% | 1005.2 hPa | 0 mm | - | 938 W/m² | - |
| 1777059158 | 31.11° C | 64% | 1005.2 hPa | 0 mm | - | 203 W/m² | - |
| 1777058852 | 31.11° C | 63% | 1005.3 hPa | 0 mm | - | 919 W/m² | - |
| 1777058547 | 30° C | 65% | 1005.4 hPa | 0 mm | - | 541 W/m² | - |
| 1777058245 | 30.56° C | 64% | 1005.3 hPa | 0 mm | - | 208 W/m² | - |
| 1777057941 | 30.56° C | 65% | 1005.4 hPa | 0 mm | - | 921 W/m² | - |
| 1777057636 | 30.56° C | 64% | 1005.6 hPa | 0 mm | - | 952 W/m² | - |
| 1777057332 | 30.56° C | 65% | 1005.7 hPa | 0 mm | - | 857 W/m² | - |
| 1777057027 | 30.56° C | 66% | 1005.5 hPa | 0 mm | - | 923 W/m² | - |
| 1777056726 | 30.56° C | 66% | 1005.6 hPa | 0 mm | - | 979 W/m² | - |
| 1777056423 | 30° C | 65% | 1005.8 hPa | 0 mm | - | 1033 W/m² | - |
| 1777056118 | 29.44° C | 66% | 1005.9 hPa | 0 mm | - | 1038 W/m² | - |
| 1777055814 | 29.44° C | 67% | 1005.9 hPa | 0 mm | - | 304 W/m² | - |
| 1777055512 | 29.44° C | 68% | 1006 hPa | 0 mm | - | 1035 W/m² | - |
| 1777055211 | 29.44° C | 67% | 1006 hPa | 0 mm | - | 211 W/m² | - |
| 1777054910 | 30° C | 66% | 1006 hPa | 0 mm | - | 1053 W/m² | - |
| 1777054608 | 29.44° C | 67% | 1006.3 hPa | 0 mm | - | 1039 W/m² | - |
| 1777054304 | 29.44° C | 67% | 1006.3 hPa | 0 mm | - | 363 W/m² | - |
| 1777054004 | 28.89° C | 68% | 1006 hPa | 0 mm | - | 305 W/m² | - |
| 1777053698 | 29.44° C | 65% | 1006.2 hPa | 0 mm | - | 335 W/m² | - |
* Rain latest hour (hover to see other rain measurements)
** Current wind speed in m/s (hover to see current wind gust speed)